This is the latest recevied weather packets stored in our database for station/object WZ8H. If no packets are shown the sender has not sent any weather packets the latest 10 day(s).
| Time | Temp. | Humidity | Pressure | Rain* | Wind** | Luminosity | Snow |
|---|---|---|---|---|---|---|---|
| 1777928676 | 23.89° C | 60% | 1001.1 hPa | 0 mm | - | 715 W/m² | - |
| 1777928376 | 23.89° C | 58% | 1001.1 hPa | 0 mm | - | 717 W/m² | - |
| 1777928050 | 23.89° C | 59% | 1001.2 hPa | 0 mm | - | 691 W/m² | - |
| 1777927745 | 23.33° C | 60% | 1001.3 hPa | 0 mm | - | 703 W/m² | - |
| 1777927419 | 23.89° C | 59% | 1001.4 hPa | 0 mm | - | 118 W/m² | - |
| 1777927093 | 23.33° C | 59% | 1001.6 hPa | 0 mm | - | 176 W/m² | - |
| 1777926768 | 23.89° C | 58% | 1001.6 hPa | 0 mm | - | 601 W/m² | - |
| 1777926442 | 23.89° C | 57% | 1001.8 hPa | 0 mm | - | 700 W/m² | - |
| 1777926117 | 23.89° C | 58% | 1001.8 hPa | 0 mm | - | 712 W/m² | - |
| 1777925789 | 23.89° C | 57% | 1001.9 hPa | 0 mm | - | 626 W/m² | - |
| 1777925487 | 23.89° C | 57% | 1002 hPa | 0 mm | - | 761 W/m² | - |
| 1777925158 | 23.89° C | 56% | 1002 hPa | 0 mm | - | 724 W/m² | - |
| 1777924856 | 23.89° C | 56% | 1002 hPa | 0 mm | - | 777 W/m² | - |
| 1777924529 | 23.89° C | 58% | 1002.1 hPa | 0 mm | - | 770 W/m² | - |
| 1777924227 | 23.33° C | 58% | 1002.2 hPa | 0 mm | - | 788 W/m² | - |
| 1777923924 | 23.33° C | 59% | 1002.3 hPa | 0 mm | - | 809 W/m² | - |
| 1777923602 | 23.33° C | 56% | 1002.4 hPa | 0 mm | - | 610 W/m² | - |
| 1777923277 | 23.33° C | 57% | 1002.6 hPa | 0 mm | - | 821 W/m² | - |
| 1777922983 | 23.33° C | 57% | 1002.7 hPa | 0 mm | - | 854 W/m² | - |
| 1777922674 | 22.78° C | 57% | 1002.7 hPa | 0 mm | - | 838 W/m² | - |
| 1777922371 | 22.78° C | 58% | 1002.7 hPa | 0 mm | - | 851 W/m² | - |
| 1777922070 | 22.22° C | 58% | 1002.8 hPa | 0 mm | - | 861 W/m² | - |
| 1777921747 | 22.22° C | 59% | 1002.9 hPa | 0 mm | - | 867 W/m² | - |
| 1777921445 | 22.78° C | 60% | 1002.9 hPa | 0 mm | - | 868 W/m² | - |
| 1777921143 | 22.22° C | 59% | 1003 hPa | 0 mm | - | 879 W/m² | - |
* Rain latest hour (hover to see other rain measurements)
** Current wind speed in m/s (hover to see current wind gust speed)